#timestamp,LO_Frequency,Hit,StdDev 
1455494415.0,286047010.0,N
1455494415.9,286047010.0,N
1455494435.7,286047007.6,N
1455494455.6,286047004.4,N
1455494475.4,286047005.7,N
1455494495.2,286047003.1,N
1455494515.1,286047006.0,N
1455494516.0,286047006.0,N
1455494535.8,286047007.6,N
1455494555.6,286047006.4,N
1455494575.5,286047006.7,N
1455494595.3,286047009.0,N
1455494615.1,286047003.2,N
1455494635.9,286047004.7,N
1455494655.7,286047004.3,N
1455494675.5,286046998.1,N
1455494695.3,286046997.3,N
1455494715.2,286046999.4,N
1455494735.9,286046997.1,N
1455494755.7,286046997.5,N
1455494775.6,286046995.2,N
1455494795.4,286046996.0,N
1455494815.2,286046993.5,N
1455494835.1,286046991.7,N
1455494836.0,286046991.7,N
1455494855.8,286046993.3,N
1455494875.6,286046991.9,N
1455494895.5,286046992.0,N
1455494915.3,286046993.2,N
1455494935.1,286046990.5,N
1455494955.8,286046992.8,N
1455494975.7,286046991.2,N
1455494995.5,286046991.4,N
1455495015.3,286046987.6,N
1455495035.2,286046985.3,N
1455495055.9,286046983.6,N
1455495075.7,286046983.4,N
1455495095.6,286046983.3,N
1455495115.4,286046984.9,N
1455495135.2,286046983.4,N
1455495155.1,286046979.3,N
1455495156.0,286046979.3,N
1455495175.8,286046981.0,N
1455495195.6,286046976.2,Y
1455495215.5,286046987.7,P
1455495235.3,286046989.5,P
1455495255.1,286046986.2,P
1455495275.9,286046984.7,Y
1455495295.7,286046994.7,P
1455495315.5,286046989.0,P
1455495335.4,286046988.7,P
1455495355.2,286046989.4,Y
1455495375.0,286046998.2,P
1455495375.9,286046998.2,N
1455495395.8,286047001.0,N
1455495415.6,286047001.2,N
1455495435.4,286047002.7,N
1455495455.3,286046998.2,N
1455495475.1,286046999.0,N
1455495476.0,286046999.0,N
1455495495.8,286046995.0,N
1455495515.7,286046995.8,N
1455495535.5,286046995.8,N
1455495555.3,286046994.2,N
1455495575.1,286046993.9,N
1455495595.9,286046991.3,N
1455495615.7,286046987.0,Y
1455495635.5,286046994.5,P
1455495655.4,286046994.8,P
1455495675.2,286046990.4,P
1455495695.0,286046986.9,Y
1455495696.0,286046986.9,P
1455495715.8,286046994.1,N
1455495735.6,286046996.2,N
1455495755.4,286046997.9,N
1455495775.3,286046998.0,N
1455495795.1,286046994.9,N
1455495815.8,286046993.4,N
1455495835.7,286046994.7,N
1455495855.5,286046995.5,N
1455495875.3,286046997.8,N
1455495895.2,286046994.0,N
1455495915.9,286046994.0,N
1455495935.7,286046997.0,N
1455495955.6,286046996.7,N
1455495975.4,286046998.5,N
1455495995.2,286046998.2,N
1455496015.0,286046998.7,N
1455496015.9,286046998.7,N
1455496035.8,286046998.8,N
1455496055.6,286046997.7,N
1455496075.4,286047001.2,N
1455496095.3,286047000.3,N
1455496115.1,286047005.6,N
1455496135.8,286047007.0,N
1455496155.7,286047006.3,N
1455496175.5,286047004.8,N
1455496195.3,286047006.6,N
1455496215.2,286047006.3,N
1455496235.9,286047007.0,N
1455496255.7,286047006.8,N
1455496275.6,286047006.8,N
1455496295.4,286047009.9,N
1455496315.2,286047013.0,N
1455496335.0,286047015.4,N
1455496336.0,286047015.4,N
1455496355.8,286047014.1,N
1455496375.6,286047012.9,N
1455496395.4,286047013.4,N
1455496415.3,286047012.7,N
1455496435.1,286047013.2,N
1455496455.8,286047013.0,N
1455496475.7,286047014.0,N
1455496495.5,286047010.8,N
1455496515.3,286047006.1,N
1455496535.2,286047007.0,N
1455496555.9,286047010.7,N
1455496575.7,286047009.0,N
1455496595.6,286047006.2,N
1455496615.4,286047008.0,N
1455496635.2,286047006.1,N
1455496655.1,286047006.5,N
1455496656.0,286047006.5,N
1455496675.8,286047006.2,N
1455496695.6,286047006.3,N
1455496715.4,286047005.0,N
1455496735.3,286047004.9,N
1455496755.1,286047005.5,N
1455496775.8,286047003.7,N
1455496795.7,286047002.8,N
1455496815.5,286047000.8,N
1455496835.3,286047002.5,N
1455496855.2,286047002.4,N
1455496875.9,286046999.9,N
1455496895.7,286047002.1,N
1455496915.6,286047001.3,N
1455496935.4,286047003.5,N
1455496955.2,286047006.0,N
1455496975.1,286047004.5,N
1455496976.0,286047004.5,N
1455496995.8,286047005.8,N
1455497015.6,286047004.5,N
1455497035.5,286047004.6,N
1455497055.3,286047004.5,N
1455497075.1,286047008.5,Y
1455497095.9,286047004.3,P
1455497115.7,286047003.2,P
1455497135.5,286047006.1,P
1455497155.4,286047006.3,Y
1455497175.2,286047003.2,P
1455497195.0,286047001.9,N
1455497195.9,286047001.9,N
1455497215.8,286047001.5,N
1455497235.6,286047002.8,N
1455497255.4,286047001.3,N
1455497275.2,286046998.6,N
1455497295.1,286047002.7,N
1455497296.0,286047002.7,N
1455497315.8,286047000.2,N
1455497335.7,286047005.6,Y
1455497355.5,286047002.0,P
1455497375.3,286047004.0,P
1455497395.1,286047008.8,P
1455497415.9,286047003.3,N
1455497435.7,286046999.8,N
1455497455.5,286047000.3,N
1455497475.4,286047005.4,N
1455497495.2,286047004.2,N
1455497515.0,286047002.4,N
1455497515.9,286047002.4,N
1455497535.8,286047000.8,N
1455497555.6,286046997.6,N
1455497575.4,286046997.6,N
1455497595.3,286046998.3,N
1455497615.1,286047001.8,N
1455497616.0,286047001.8,N
1455497635.8,286047001.8,N
1455497655.7,286047002.8,N
1455497675.5,286047002.3,N
1455497695.3,286047000.9,N
1455497715.1,286046998.8,N
1455497735.9,286047000.0,N
1455497755.7,286047004.0,N
1455497775.5,286047003.8,N
1455497795.4,286047002.4,N
1455497815.2,286047004.3,N
1455497835.0,286047005.9,N
1455497835.9,286047005.9,N
1455497855.8,286047001.5,N
1455497875.6,286046999.7,N
1455497895.4,286047004.1,N
1455497915.3,286047005.6,N
1455497935.1,286047005.2,N
1455497936.0,286047005.2,N
1455497955.8,286047007.1,N
1455497975.7,286047007.3,N
1455497995.5,286047007.0,N
1455494415.3,286046997.0,N
1455494435.2,286047001.0,N
1455494455.9,286047002.3,N
1455494475.7,286047000.9,N
1455494495.5,286047001.0,N
1455494515.4,286046995.1,N
1455494535.2,286046997.5,N
1455494555.0,286046999.5,N
1455494555.9,286046999.5,N
1455494575.8,286046996.7,N
1455494595.6,286046994.0,N
1455494615.4,286046993.8,N
1455494635.3,286046994.7,N
1455494655.1,286046992.2,N
1455494656.0,286046992.2,N
1455494675.8,286046992.9,N
1455494695.7,286046994.3,N
1455494715.5,286046993.4,N
1455494735.3,286046995.9,N
1455494755.2,286046997.7,N
1455494775.9,286046995.9,N
1455494795.7,286046994.0,N
1455494815.5,286046995.6,N
1455494835.4,286046997.9,N
1455494855.2,286047001.0,N
1455494875.0,286046998.7,N
1455494875.9,286046998.7,N
1455494895.8,286047002.1,N
1455494915.6,286047002.6,N
1455494935.4,286047002.0,N
1455494955.3,286046999.7,N
1455494975.1,286047006.0,N
1455494995.8,286047003.8,N
1455495015.7,286047004.2,N
1455495035.5,286047001.8,N
1455495055.3,286047004.2,N
1455495075.2,286047004.3,N
1455495095.9,286047004.3,N
1455495115.7,286047002.2,N
1455495135.5,286047000.8,N
1455495155.4,286046999.1,N
1455495175.2,286046996.6,N
1455495195.0,286046999.1,N
1455495195.9,286046999.1,N
1455495215.8,286046996.4,N
1455495235.6,286046994.1,N
1455495255.4,286046995.0,N
1455495275.3,286046996.1,N
1455495295.1,286046993.6,N
1455495315.8,286046994.1,N
1455495335.7,286046997.3,N
1455495355.5,286046995.5,N
1455495375.3,286046992.1,N
1455495395.2,286046993.2,N
1455495415.9,286046991.3,N
1455495435.7,286046991.5,N
1455495455.5,286046991.5,N
1455495475.4,286046993.2,N
1455495495.2,286046989.2,N
1455495515.0,286046989.3,N
1455495515.9,286046989.3,N
1455495535.8,286046989.8,N
1455495555.6,286046987.9,N
1455495575.4,286046985.7,N
1455495595.3,286046987.6,N
1455495615.1,286046989.6,N
1455495635.8,286046983.8,Y
1455495655.7,286046991.2,P
1455495675.5,286046989.7,P
1455495695.3,286046988.0,P
1455495715.2,286046988.7,Y
1455495735.0,286046999.1,P
1455495735.9,286046999.1,N
1455495755.7,286046997.9,N
1455495775.6,286046993.3,N
1455495795.4,286046995.6,N
1455495815.2,286046999.6,N
1455495835.1,286046996.5,N
1455495836.0,286046996.5,N
1455495855.8,286047002.6,N
1455495875.6,286047004.0,N
1455495895.5,286047000.7,N
1455495915.3,286047002.8,N
1455495935.1,286046999.9,N
1455495955.9,286047002.8,N
1455495975.7,286047002.4,N
1455495995.5,286047000.6,N
1455496015.3,286046998.5,N
1455496035.2,286047000.4,N
1455496055.0,286047001.1,N
1455496055.9,286047001.1,N
1455496075.7,286047001.2,N
1455496095.6,286046996.6,N
1455496115.4,286046996.9,N
1455496135.2,286046997.2,N
1455496155.1,286046996.3,N
1455496156.0,286046996.3,N
1455496175.8,286046995.4,N
1455496195.6,286046997.1,N
1455496215.5,286046998.5,N
1455496235.3,286046997.7,N
1455496255.1,286046995.9,N
1455496275.9,286046993.6,N
1455496295.7,286046995.4,N
1455496315.5,286046994.5,N
1455496335.4,286046996.1,N
1455496355.2,286046995.4,N
1455496375.0,286046994.0,N
1455496375.9,286046994.0,N
1455496395.8,286046995.2,N
1455496415.6,286046996.4,N
1455496435.4,286046995.7,N
1455496455.2,286046997.6,N
1455496475.1,286046998.4,N
1455496476.0,286046998.4,N
1455496495.8,286046997.1,N
1455496515.6,286046998.0,N
1455496535.5,286046996.5,N
1455496555.3,286046999.6,N
1455496575.1,286046999.2,N
1455496595.9,286047000.8,N
1455496615.7,286047000.6,N
1455496635.5,286047001.2,N
1455496655.4,286046998.6,N
1455496675.2,286046996.5,N
1455496695.0,286046999.2,N
1455496695.9,286046999.2,N
1455496715.8,286047000.7,N
1455496735.6,286046999.6,N
1455496755.4,286046997.1,N
1455496775.3,286046997.1,N
1455496795.1,286047000.0,N
1455496796.0,286047000.0,N
1455496815.8,286047000.8,N
1455496835.6,286047001.6,N
1455496855.5,286047003.3,N
1455496875.3,286047004.2,N
1455496895.1,286047004.3,N
1455496915.9,286047005.5,N
1455496935.7,286047010.4,Y
1455496955.5,286047011.7,P
1455496975.4,286047011.0,N
1455496995.2,286047013.3,N
1455497015.0,286047009.6,N
1455497015.9,286047009.6,N
1455497035.8,286047007.8,N
1455497055.6,286047004.6,N
1455497075.4,286047009.0,N
1455497095.3,286047006.8,N
1455497115.1,286047006.3,N
1455497116.0,286047006.3,N
1455497135.8,286047007.9,N
1455497155.7,286047008.3,N
1455497175.5,286047008.1,N
1455497195.3,286047009.2,N
1455497215.2,286047007.4,N
1455497235.9,286047004.6,N
1455497255.7,286047005.9,N
1455497275.5,286047006.7,N
1455497295.4,286047005.2,N
1455497315.2,286047005.0,N
1455497335.0,286047006.0,N
1455497335.9,286047006.0,N
1455497355.8,286047004.2,N
1455497375.6,286047003.0,N
1455497395.4,286047004.0,N
1455497415.3,286047002.0,N
1455497435.1,286047005.7,N
1455497436.0,286047005.7,N
1455497455.8,286047006.1,N
1455497475.7,286047004.5,N
1455497495.5,286047003.0,N
1455497515.3,286047006.0,N
1455497535.2,286047003.0,N
1455497555.9,286047004.4,N
1455497575.7,286047003.8,N
1455497595.6,286047004.3,N
1455497615.4,286047003.9,N
1455497635.2,286047002.0,N
1455497655.0,286047003.4,N
1455497656.0,286047003.4,N
1455497675.8,286047002.4,N
1455497695.6,286047002.5,N
1455497715.4,286046999.9,N
1455497735.3,286046998.8,N
1455497755.1,286046998.3,N
1455497775.8,286046999.4,N
1455497795.7,286046996.7,N
1455497815.5,286046997.3,N
1455497835.3,286046997.0,N
1455497855.2,286046995.9,N
1455497875.9,286046994.3,N
1455497895.7,286046993.9,N
1455497915.6,286046994.9,N
1455497935.4,286046997.5,N
1455497955.2,286046998.0,N
1455497975.1,286046995.1,N
1455497976.0,286046995.1,N
1455497995.8,286046995.4,N
